Location: Waco, TX
(31.5480°N, 97.1670°W)
Time: 15:42:24
(UTC-05:00)

ISS - Pass Details

Date: 16 September 2019
Orbit: 411 x 421 km, 51.6° (Epoch: 17 September)

Event Time Altitude Azimuth Distance (km) Brightness Sun altitude
Rises 05:26:56 0° 319° (NW) 2,348 - -23.0°
Reaches altitude 10° 05:29:03 10° 323° (NW) 1,485 - -22.6°
Exits shadow 05:32:20 58° 43° (NE) 487 -3.3 -21.9°
Maximum altitude 05:32:20 58° 43° (NE) 487 -3.3 -21.9°
Drops below altitude 10° 05:35:38 10° 124° (SE) 1,483 -0.5 -21.2°
Sets 05:37:44 0° 128° (SE) 2,345 0.5 -20.8°
